Location: Newark
(47.5989°N, 4.6950°E)
Time: 13:41:36
(UTC+00:00)

Envisat - Pass Details

Date: 15 November 2019
Orbit: 764 x 766 km, 98.1° (Epoch: 08 December)

Event Time Altitude Azimuth Distance (km) Brightness Sun altitude
Rises 05:07:50 0° 31° (NNE) 3,242 6.5 -16.4°
Reaches altitude 10° 05:11:27 10° 58° (ENE) 2,309 6.2 -15.8°
Maximum altitude 05:13:54 13° 87° (E) 2,071 6.4 -15.4°
Drops below altitude 10° 05:16:20 10° 116° (ESE) 2,300 6.7 -15.0°
Sets 05:19:54 0° 142° (SE) 3,219 7.0 -14.4°
